Location: Bern�tre
(50.1974°N, 2.0915°E)
Time: 09:30:56
(UTC+00:00)

SJ 16-02 - Pass Details

Date: 18 September 2020
Orbit: 606 x 616 km, 75.0° (Epoch: 28 October)

Event Time Altitude Azimuth Distance (km) Brightness Sun altitude
Rises 19:37:20 0° 241° (WSW) 2,859 5.3 -16.3°
Reaches altitude 10° 19:40:01 10° 257° (WSW) 1,959 4.7 -16.7°
Maximum altitude 19:43:22 21° 307° (NW) 1,377 4.1 -17.2°
Drops below altitude 10° 19:46:44 10° 358° (N) 1,968 4.3 -17.7°
Sets 19:49:27 0° 14° (NNE) 2,877 4.9 -18.1°
